Time,TemperatureF,DewpointF,PressureIn,WindDirection,WindDirectionDegrees,WindSpeedMPH,WindSpeedGustMPH,Humidity,HourlyPrecipIn,Conditions,Clouds,dailyrainin,SolarRadiationWatts/m^2,SoftwareType,DateUTC
2013-11-07 00:01:00,24.4,17.0,29.95,WNW,300,0.0,1.0,73,0.00,,,0.00,0,WeatherCatV1.02B3,2013-11-07 09:01:00,
2013-11-07 00:06:00,24.2,16.8,29.94,WNW,300,0.0,0.0,73,0.00,,,0.00,0,WeatherCatV1.02B3,2013-11-07 09:06:00,
2013-11-07 00:11:00,24.0,16.9,29.93,WNW,300,0.0,1.0,74,0.00,,,0.00,0,WeatherCatV1.02B3,2013-11-07 09:11:00,
2013-11-07 00:16:00,23.8,17.1,29.93,WNW,300,0.0,0.0,75,0.00,,,0.00,0,WeatherCatV1.02B3,2013-11-07 09:16:00,
2013-11-07 00:21:00,23.6,16.9,29.93,WNW,300,0.0,0.0,75,0.00,,,0.00,0,WeatherCatV1.02B3,2013-11-07 09:21:00,
2013-11-07 00:26:00,23.6,17.2,29.93,WNW,300,0.0,0.0,76,0.00,,,0.00,0,WeatherCatV1.02B3,2013-11-07 09:26:00,
2013-11-07 00:31:00,23.7,17.3,29.93,WNW,300,0.0,0.0,76,0.00,,,0.00,0,WeatherCatV1.02B3,2013-11-07 09:31:00,
2013-11-07 00:36:00,23.8,17.4,29.93,WNW,300,0.0,0.0,76,0.00,,,0.00,0,WeatherCatV1.02B3,2013-11-07 09:36:00,
2013-11-07 00:41:00,23.8,17.4,29.93,WNW,300,0.0,0.0,76,0.00,,,0.00,0,WeatherCatV1.02B3,2013-11-07 09:41:00,
2013-11-07 00:46:00,23.9,17.5,29.93,WNW,300,0.0,0.0,76,0.00,,,0.00,0,WeatherCatV1.02B3,2013-11-07 09:46:00,
2013-11-07 00:51:00,23.9,17.5,29.93,WNW,300,0.0,1.0,76,0.00,,,0.00,0,WeatherCatV1.02B3,2013-11-07 09:51:00,
2013-11-07 00:56:00,23.9,17.2,29.92,WNW,300,0.0,0.0,75,0.00,,,0.00,0,WeatherCatV1.02B3,2013-11-07 09:56:00,
2013-11-07 01:01:00,23.8,17.4,29.92,WNW,300,0.0,0.0,76,0.00,,,0.00,0,WeatherCatV1.02B3,2013-11-07 10:01:00,
2013-11-07 01:06:00,23.8,17.4,29.93,WNW,300,0.0,0.0,76,0.00,,,0.00,0,WeatherCatV1.02B3,2013-11-07 10:06:00,
2013-11-07 01:11:00,23.9,17.5,29.92,WNW,300,0.0,0.0,76,0.00,,,0.00,0,WeatherCatV1.02B3,2013-11-07 10:11:00,
2013-11-07 01:16:00,23.7,17.3,29.92,WNW,300,0.0,0.0,76,0.00,,,0.00,0,WeatherCatV1.02B3,2013-11-07 10:16:00,
2013-11-07 01:21:00,23.5,17.1,29.92,WNW,300,0.0,0.0,76,0.00,,,0.00,0,WeatherCatV1.02B3,2013-11-07 10:21:00,
2013-11-07 01:26:00,23.5,17.1,29.92,WNW,300,0.0,0.0,76,0.00,,,0.00,0,WeatherCatV1.02B3,2013-11-07 10:26:00,
2013-11-07 01:31:00,23.5,17.4,29.92,WNW,300,0.0,0.0,77,0.00,,,0.00,0,WeatherCatV1.02B3,2013-11-07 10:31:00,
2013-11-07 01:36:00,23.7,17.6,29.92,WNW,300,0.0,0.0,77,0.00,,,0.00,0,WeatherCatV1.02B3,2013-11-07 10:36:00,
2013-11-07 01:41:00,23.8,17.7,29.92,WNW,300,0.0,0.0,77,0.00,,,0.00,0,WeatherCatV1.02B3,2013-11-07 10:41:00,
2013-11-07 01:46:00,24.0,17.9,29.91,WNW,300,0.0,1.0,77,0.00,,,0.00,0,WeatherCatV1.02B3,2013-11-07 10:46:00,
2013-11-07 01:51:00,24.6,18.1,29.92,WNW,300,0.0,0.0,76,0.00,,,0.00,0,WeatherCatV1.02B3,2013-11-07 10:51:00,
2013-11-07 01:56:00,24.8,18.3,29.91,WNW,300,0.0,0.0,76,0.00,,,0.00,0,WeatherCatV1.02B3,2013-11-07 10:56:00,
2013-11-07 02:01:00,24.9,18.1,29.91,WNW,300,0.0,0.0,75,0.00,,,0.00,0,WeatherCatV1.02B3,2013-11-07 11:01:00,
2013-11-07 02:06:00,25.1,18.3,29.91,WNW,300,0.0,0.0,75,0.00,,,0.00,0,WeatherCatV1.02B3,2013-11-07 11:06:00,
2013-11-07 02:11:00,25.3,18.5,29.91,WNW,300,0.0,0.0,75,0.00,,,0.00,0,WeatherCatV1.02B3,2013-11-07 11:11:00,
2013-11-07 02:16:00,25.4,18.3,29.91,WNW,300,0.0,0.0,74,0.00,,,0.00,0,WeatherCatV1.02B3,2013-11-07 11:16:00,
2013-11-07 02:21:00,25.5,18.4,29.91,WNW,300,0.0,0.0,74,0.00,,,0.00,0,WeatherCatV1.02B3,2013-11-07 11:21:00,
2013-11-07 02:26:00,25.5,18.4,29.91,WNW,300,0.0,0.0,74,0.00,,,0.00,0,WeatherCatV1.02B3,2013-11-07 11:26:00,
2013-11-07 02:31:00,25.5,18.4,29.91,WNW,300,0.0,0.0,74,0.00,,,0.00,0,WeatherCatV1.02B3,2013-11-07 11:31:00,
2013-11-07 02:34:00,25.5,18.4,29.91,WNW,300,0.0,0.0,74,0.00,,,0.00,0,WeatherCatV1.02B3,2013-11-07 11:34:00,
2013-11-07 02:39:00,25.3,17.9,29.90,WNW,300,0.0,0.0,73,0.00,,,0.00,0,WeatherCatV1.02B3,2013-11-07 11:39:00,
2013-11-07 02:44:00,25.3,18.2,29.91,WNW,300,0.0,0.0,74,0.00,,,0.00,0,WeatherCatV1.02B3,2013-11-07 11:44:00,
2013-11-07 02:49:00,25.5,18.4,29.90,WNW,300,0.0,0.0,74,0.00,,,0.00,0,WeatherCatV1.02B3,2013-11-07 11:49:00,
2013-11-07 02:54:00,25.6,18.5,29.90,WNW,300,0.0,0.0,74,0.00,,,0.00,0,WeatherCatV1.02B3,2013-11-07 11:54:00,
2013-11-07 02:59:00,25.8,18.4,29.90,WNW,300,0.0,0.0,73,0.00,,,0.00,0,WeatherCatV1.02B3,2013-11-07 11:59:00,
2013-11-07 03:04:00,25.9,18.5,29.90,WNW,300,0.0,0.0,73,0.00,,,0.00,0,WeatherCatV1.02B3,2013-11-07 12:04:00,
2013-11-07 03:09:00,25.9,18.5,29.90,WNW,300,0.0,0.0,73,0.00,,,0.00,0,WeatherCatV1.02B3,2013-11-07 12:09:00,
2013-11-07 03:14:00,26.1,18.7,29.90,WNW,300,0.0,0.0,73,0.00,,,0.00,0,WeatherCatV1.02B3,2013-11-07 12:14:00,
2013-11-07 03:19:00,26.6,18.8,29.90,WNW,300,0.0,0.0,72,0.00,,,0.00,0,WeatherCatV1.02B3,2013-11-07 12:19:00,
2013-11-07 03:24:00,26.9,18.8,29.89,WNW,300,0.0,0.0,71,0.00,,,0.00,0,WeatherCatV1.02B3,2013-11-07 12:24:00,
2013-11-07 03:29:00,27.1,18.6,29.89,WNW,300,0.0,0.0,70,0.00,,,0.00,0,WeatherCatV1.02B3,2013-11-07 12:29:00,
2013-11-07 03:34:00,27.4,18.9,29.89,WNW,300,0.0,0.0,70,0.00,,,0.00,0,WeatherCatV1.02B3,2013-11-07 12:34:00,
2013-11-07 03:39:00,27.6,18.8,29.89,WNW,300,0.0,0.0,69,0.00,,,0.00,0,WeatherCatV1.02B3,2013-11-07 12:39:00,
2013-11-07 03:44:00,27.6,18.8,29.89,WNW,300,0.0,0.0,69,0.00,,,0.00,0,WeatherCatV1.02B3,2013-11-07 12:44:00,
2013-11-07 03:49:00,27.5,18.7,29.89,WNW,300,0.0,0.0,69,0.00,,,0.00,0,WeatherCatV1.02B3,2013-11-07 12:49:00,
2013-11-07 03:54:00,27.4,18.9,29.89,WNW,300,0.0,0.0,70,0.00,,,0.00,0,WeatherCatV1.02B3,2013-11-07 12:54:00,
2013-11-07 03:59:00,27.3,18.8,29.88,WNW,300,0.0,0.0,70,0.00,,,0.00,0,WeatherCatV1.02B3,2013-11-07 12:59:00,
2013-11-07 04:04:00,27.2,18.7,29.88,WNW,300,0.0,0.0,70,0.00,,,0.00,0,WeatherCatV1.02B3,2013-11-07 13:04:00,
2013-11-07 04:09:00,27.1,19.0,29.88,WNW,300,0.0,0.0,71,0.00,,,0.00,0,WeatherCatV1.02B3,2013-11-07 13:09:00,
2013-11-07 04:14:00,27.1,19.0,29.88,WNW,300,0.0,0.0,71,0.00,,,0.00,0,WeatherCatV1.02B3,2013-11-07 13:14:00,
2013-11-07 04:19:00,27.1,19.0,29.87,WNW,300,0.0,0.0,71,0.00,,,0.00,0,WeatherCatV1.02B3,2013-11-07 13:19:00,
2013-11-07 04:24:00,27.1,19.0,29.87,WNW,300,0.0,0.0,71,0.00,,,0.00,0,WeatherCatV1.02B3,2013-11-07 13:24:00,
2013-11-07 04:29:00,27.3,19.2,29.87,WNW,300,0.0,0.0,71,0.00,,,0.00,0,WeatherCatV1.02B3,2013-11-07 13:29:00,
2013-11-07 04:34:00,27.3,19.2,29.87,WNW,300,0.0,0.0,71,0.00,,,0.00,0,WeatherCatV1.02B3,2013-11-07 13:34:00,
2013-11-07 04:39:00,27.5,19.4,29.87,WNW,300,0.0,0.0,71,0.00,,,0.00,0,WeatherCatV1.02B3,2013-11-07 13:39:00,
2013-11-07 04:44:00,27.8,19.3,29.87,WNW,300,0.0,0.0,70,0.00,,,0.00,0,WeatherCatV1.02B3,2013-11-07 13:44:00,
2013-11-07 04:49:00,28.2,19.4,29.87,WNW,300,0.0,0.0,69,0.00,,,0.00,0,WeatherCatV1.02B3,2013-11-07 13:49:00,
2013-11-07 04:54:00,28.6,19.7,29.87,WNW,300,0.0,0.0,69,0.00,,,0.00,0,WeatherCatV1.02B3,2013-11-07 13:54:00,
2013-11-07 04:59:00,28.8,19.9,29.87,WNW,300,0.0,0.0,69,0.00,,,0.00,0,WeatherCatV1.02B3,2013-11-07 13:59:00,
2013-11-07 05:04:00,28.9,20.0,29.87,WNW,300,0.0,0.0,69,0.00,,,0.00,0,WeatherCatV1.02B3,2013-11-07 14:04:00,
2013-11-07 05:09:00,28.9,19.7,29.86,WNW,300,0.0,0.0,68,0.00,,,0.00,0,WeatherCatV1.02B3,2013-11-07 14:09:00,
2013-11-07 05:14:00,28.7,19.8,29.86,WNW,300,0.0,0.0,69,0.00,,,0.00,0,WeatherCatV1.02B3,2013-11-07 14:14:00,
2013-11-07 05:19:00,28.5,19.6,29.86,WNW,300,0.0,0.0,69,0.00,,,0.00,0,WeatherCatV1.02B3,2013-11-07 14:19:00,
2013-11-07 05:24:00,28.4,19.9,29.86,WNW,300,0.0,0.0,70,0.00,,,0.00,0,WeatherCatV1.02B3,2013-11-07 14:24:00,
2013-11-07 05:29:00,28.2,19.7,29.85,WNW,300,0.0,0.0,70,0.00,,,0.00,0,WeatherCatV1.02B3,2013-11-07 14:29:00,
2013-11-07 05:34:00,28.0,19.8,29.85,WNW,300,0.0,0.0,71,0.00,,,0.00,0,WeatherCatV1.02B3,2013-11-07 14:34:00,
2013-11-07 05:39:00,28.1,19.6,29.85,WNW,300,0.0,0.0,70,0.00,,,0.00,0,WeatherCatV1.02B3,2013-11-07 14:39:00,
2013-11-07 05:44:00,28.6,19.4,29.85,WNW,300,0.0,1.0,68,0.00,,,0.00,0,WeatherCatV1.02B3,2013-11-07 14:44:00,
2013-11-07 05:49:00,29.0,19.8,29.85,WNW,300,0.0,0.0,68,0.00,,,0.00,0,WeatherCatV1.02B3,2013-11-07 14:49:00,
2013-11-07 05:54:00,29.1,19.9,29.85,WNW,300,0.0,0.0,68,0.00,,,0.00,0,WeatherCatV1.02B3,2013-11-07 14:54:00,
2013-11-07 05:59:00,29.2,19.6,29.85,WNW,300,0.0,0.0,67,0.00,,,0.00,0,WeatherCatV1.02B3,2013-11-07 14:59:00,
2013-11-07 06:04:00,29.2,19.6,29.85,WNW,300,0.0,0.0,67,0.00,,,0.00,0,WeatherCatV1.02B3,2013-11-07 15:04:00,
2013-11-07 06:09:00,29.2,19.3,29.84,WNW,300,0.0,0.0,66,0.00,,,0.00,0,WeatherCatV1.02B3,2013-11-07 15:09:00,
2013-11-07 06:14:00,29.1,19.5,29.84,WNW,300,0.0,0.0,67,0.00,,,0.00,0,WeatherCatV1.02B3,2013-11-07 15:14:00,
2013-11-07 06:19:00,29.2,19.6,29.84,WNW,300,0.0,0.0,67,0.00,,,0.00,0,WeatherCatV1.02B3,2013-11-07 15:19:00,
2013-11-07 06:24:00,29.2,19.3,29.84,WNW,300,0.0,0.0,66,0.00,,,0.00,0,WeatherCatV1.02B3,2013-11-07 15:24:00,
2013-11-07 06:29:00,29.3,19.7,29.84,WNW,300,0.0,0.0,67,0.00,,,0.00,0,WeatherCatV1.02B3,2013-11-07 15:29:00,
2013-11-07 06:34:00,29.2,19.3,29.84,WNW,300,0.0,0.0,66,0.00,,,0.00,0,WeatherCatV1.02B3,2013-11-07 15:34:00,
2013-11-07 06:39:00,29.2,19.3,29.84,WNW,300,0.0,0.0,66,0.00,,,0.00,0,WeatherCatV1.02B3,2013-11-07 15:39:00,
2013-11-07 06:44:00,29.3,19.4,29.84,WNW,300,0.0,0.0,66,0.00,,,0.00,0,WeatherCatV1.02B3,2013-11-07 15:44:00,
2013-11-07 06:49:00,29.4,19.5,29.84,WNW,300,0.0,0.0,66,0.00,,,0.00,0,WeatherCatV1.02B3,2013-11-07 15:49:00,
2013-11-07 06:54:00,29.2,19.3,29.84,WNW,300,0.0,0.0,66,0.00,,,0.00,0,WeatherCatV1.02B3,2013-11-07 15:54:00,
2013-11-07 06:59:00,29.0,19.4,29.83,WNW,300,0.0,0.0,67,0.00,,,0.00,0,WeatherCatV1.02B3,2013-11-07 15:59:00,
2013-11-07 07:04:00,29.1,19.2,29.83,WNW,300,0.0,0.0,66,0.00,,,0.00,0,WeatherCatV1.02B3,2013-11-07 16:04:00,
2013-11-07 07:09:00,29.5,19.2,29.83,WNW,300,0.0,0.0,65,0.00,,,0.00,0,WeatherCatV1.02B3,2013-11-07 16:09:00,
2013-11-07 07:14:00,29.6,19.3,29.83,WNW,300,0.0,0.0,65,0.00,,,0.00,0,WeatherCatV1.02B3,2013-11-07 16:14:00,
2013-11-07 07:19:00,29.6,19.3,29.83,WNW,300,0.0,0.0,65,0.00,,,0.00,0,WeatherCatV1.02B3,2013-11-07 16:19:00,
2013-11-07 07:24:00,29.5,19.6,29.83,WNW,300,0.0,0.0,66,0.00,,,0.00,0,WeatherCatV1.02B3,2013-11-07 16:24:00,
2013-11-07 07:29:00,29.1,19.5,29.83,WNW,300,0.0,0.0,67,0.00,,,0.00,0,WeatherCatV1.02B3,2013-11-07 16:29:00,
2013-11-07 07:34:00,28.8,19.2,29.83,WNW,300,0.0,0.0,67,0.00,,,0.00,0,WeatherCatV1.02B3,2013-11-07 16:34:00,
2013-11-07 07:39:00,28.7,19.2,29.83,WNW,300,0.0,0.0,67,0.00,,,0.00,0,WeatherCatV1.02B3,2013-11-07 16:39:00,
2013-11-07 07:44:00,28.7,19.2,29.83,WNW,300,0.0,0.0,67,0.00,,,0.00,0,WeatherCatV1.02B3,2013-11-07 16:44:00,
2013-11-07 07:49:00,28.6,19.4,29.83,WNW,300,0.0,0.0,68,0.00,,,0.00,0,WeatherCatV1.02B3,2013-11-07 16:49:00,
2013-11-07 07:54:00,28.7,19.5,29.83,WNW,300,0.0,0.0,68,0.00,,,0.00,0,WeatherCatV1.02B3,2013-11-07 16:54:00,
2013-11-07 07:59:00,28.7,19.5,29.83,WNW,300,0.0,1.0,68,0.00,,,0.00,0,WeatherCatV1.02B3,2013-11-07 16:59:00,
2013-11-07 08:04:00,29.0,19.1,29.83,WNW,300,1.0,2.0,66,0.00,,,0.00,0,WeatherCatV1.02B3,2013-11-07 17:04:00,
2013-11-07 08:09:00,29.5,19.2,29.83,WNW,300,0.0,0.0,65,0.00,,,0.00,0,WeatherCatV1.02B3,2013-11-07 17:09:00,
2013-11-07 08:14:00,29.6,19.7,29.82,WNW,300,0.0,1.0,66,0.00,,,0.00,0,WeatherCatV1.02B3,2013-11-07 17:14:00,
2013-11-07 08:19:00,29.5,19.6,29.83,WNW,300,0.0,0.0,66,0.00,,,0.00,0,WeatherCatV1.02B3,2013-11-07 17:19:00,
2013-11-07 08:24:00,29.3,19.4,29.82,WNW,300,0.0,0.0,66,0.00,,,0.00,0,WeatherCatV1.02B3,2013-11-07 17:24:00,
2013-11-07 08:29:00,29.3,19.4,29.82,WNW,300,0.0,0.0,66,0.00,,,0.00,0,WeatherCatV1.02B3,2013-11-07 17:29:00,
2013-11-07 08:34:00,29.3,19.4,29.82,WNW,300,0.0,0.0,66,0.00,,,0.00,0,WeatherCatV1.02B3,2013-11-07 17:34:00,
2013-11-07 08:39:00,29.4,19.5,29.82,WNW,300,0.0,0.0,66,0.00,,,0.00,0,WeatherCatV1.02B3,2013-11-07 17:39:00,
2013-11-07 08:44:00,29.5,19.2,29.82,WNW,300,0.0,0.0,65,0.00,,,0.00,0,WeatherCatV1.02B3,2013-11-07 17:44:00,
2013-11-07 08:49:00,29.6,19.7,29.82,WNW,300,0.0,0.0,66,0.00,,,0.00,0,WeatherCatV1.02B3,2013-11-07 17:49:00,
2013-11-07 08:54:00,29.5,19.6,29.82,WNW,300,0.0,0.0,66,0.00,,,0.00,0,WeatherCatV1.02B3,2013-11-07 17:54:00,
2013-11-07 08:58:00,29.5,19.6,29.82,WNW,300,0.0,0.0,66,0.00,,,0.00,0,WeatherCatV1.02B3,2013-11-07 17:58:00,
2013-11-07 09:03:00,29.7,19.4,29.82,WNW,300,0.0,0.0,65,0.00,,,0.00,5,WeatherCatV1.02B3,2013-11-07 18:03:00,
2013-11-07 09:08:00,29.9,19.6,29.82,WNW,300,0.0,0.0,65,0.00,,,0.00,7,WeatherCatV1.02B3,2013-11-07 18:08:00,
2013-11-07 09:13:00,29.8,19.9,29.82,WNW,300,0.0,0.0,66,0.00,,,0.00,11,WeatherCatV1.02B3,2013-11-07 18:13:00,
2013-11-07 09:18:00,29.9,19.6,29.81,WNW,300,0.0,0.0,65,0.00,,,0.00,12,WeatherCatV1.02B3,2013-11-07 18:18:00,
2013-11-07 09:23:00,29.8,19.9,29.81,WNW,300,0.0,0.0,66,0.00,,,0.00,16,WeatherCatV1.02B3,2013-11-07 18:23:00,
2013-11-07 09:28:00,29.8,19.9,29.81,WNW,300,0.0,1.0,66,0.00,,,0.00,18,WeatherCatV1.02B3,2013-11-07 18:28:00,
2013-11-07 09:33:00,30.0,20.0,29.80,WNW,300,0.0,0.0,66,0.00,,,0.00,23,WeatherCatV1.02B3,2013-11-07 18:33:00,
2013-11-07 09:38:00,30.2,19.5,29.81,WNW,300,0.0,0.0,64,0.00,,,0.00,26,WeatherCatV1.02B3,2013-11-07 18:38:00,
2013-11-07 09:43:00,30.4,19.7,29.81,WNW,300,0.0,0.0,64,0.00,,,0.00,30,WeatherCatV1.02B3,2013-11-07 18:43:00,
2013-11-07 09:48:00,30.4,19.7,29.81,WNW,300,0.0,0.0,64,0.00,,,0.00,35,WeatherCatV1.02B3,2013-11-07 18:48:00,
2013-11-07 09:53:00,30.5,19.4,29.81,WNW,300,0.0,0.0,63,0.00,,,0.00,40,WeatherCatV1.02B3,2013-11-07 18:53:00,
2013-11-07 09:58:00,30.6,19.5,29.81,WNW,300,0.0,0.0,63,0.00,,,0.00,44,WeatherCatV1.02B3,2013-11-07 18:58:00,
2013-11-07 10:03:00,30.8,19.7,29.81,WNW,300,0.0,0.0,63,0.00,,,0.00,49,WeatherCatV1.02B3,2013-11-07 19:03:00,
2013-11-07 10:08:00,31.1,20.4,29.81,WNW,300,0.0,0.0,64,0.00,,,0.00,53,WeatherCatV1.02B3,2013-11-07 19:08:00,
2013-11-07 10:13:00,31.1,20.4,29.81,WNW,300,0.0,0.0,64,0.00,,,0.00,56,WeatherCatV1.02B3,2013-11-07 19:13:00,
2013-11-07 10:18:00,31.2,20.1,29.81,WNW,300,0.0,0.0,63,0.00,,,0.00,58,WeatherCatV1.02B3,2013-11-07 19:18:00,
2013-11-07 10:23:00,31.3,20.6,29.81,WNW,300,0.0,0.0,64,0.00,,,0.00,60,WeatherCatV1.02B3,2013-11-07 19:23:00,
2013-11-07 10:28:00,31.3,20.9,29.81,WNW,300,0.0,0.0,65,0.00,,,0.00,62,WeatherCatV1.02B3,2013-11-07 19:28:00,
2013-11-07 10:33:00,31.2,21.2,29.81,WNW,300,0.0,0.0,66,0.00,,,0.00,63,WeatherCatV1.02B3,2013-11-07 19:33:00,
2013-11-07 10:38:00,31.2,20.8,29.81,WNW,300,0.0,0.0,65,0.00,,,0.00,65,WeatherCatV1.02B3,2013-11-07 19:38:00,
2013-11-07 10:43:00,31.2,20.8,29.81,WNW,300,0.0,0.0,65,0.00,,,0.00,63,WeatherCatV1.02B3,2013-11-07 19:43:00,
2013-11-07 10:48:00,31.4,21.0,29.81,WNW,300,0.0,0.0,65,0.00,,,0.00,63,WeatherCatV1.02B3,2013-11-07 19:48:00,
2013-11-07 10:53:00,31.5,20.7,29.81,WNW,300,0.0,0.0,64,0.00,,,0.00,63,WeatherCatV1.02B3,2013-11-07 19:53:00,
2013-11-07 10:58:00,31.7,20.6,29.81,WNW,300,0.0,0.0,63,0.00,,,0.00,63,WeatherCatV1.02B3,2013-11-07 19:58:00,
2013-11-07 11:03:00,32.0,20.9,29.81,WNW,300,0.0,0.0,63,0.00,,,0.00,69,WeatherCatV1.02B3,2013-11-07 20:03:00,
2013-11-07 11:08:00,32.2,20.7,29.81,WNW,300,0.0,0.0,62,0.00,,,0.00,76,WeatherCatV1.02B3,2013-11-07 20:08:00,
2013-11-07 11:13:00,32.5,20.2,29.81,WNW,300,0.0,0.0,60,0.00,,,0.00,83,WeatherCatV1.02B3,2013-11-07 20:13:00,
2013-11-07 11:18:00,33.0,20.3,29.81,WNW,300,0.0,0.0,59,0.00,,,0.00,88,WeatherCatV1.02B3,2013-11-07 20:18:00,
2013-11-07 11:23:00,33.4,20.2,29.81,WNW,300,0.0,0.0,58,0.00,,,0.00,90,WeatherCatV1.02B3,2013-11-07 20:23:00,
2013-11-07 11:28:00,33.7,20.9,29.81,WNW,300,0.0,0.0,59,0.00,,,0.00,100,WeatherCatV1.02B3,2013-11-07 20:28:00,
2013-11-07 11:33:00,34.1,20.5,29.81,WNW,300,0.0,0.0,57,0.00,,,0.00,109,WeatherCatV1.02B3,2013-11-07 20:33:00,
2013-11-07 11:38:00,34.3,20.3,29.81,WNW,300,0.0,0.0,56,0.00,,,0.00,111,WeatherCatV1.02B3,2013-11-07 20:38:00,
2013-11-07 11:43:00,34.4,20.8,29.80,WNW,300,0.0,0.0,57,0.00,,,0.00,111,WeatherCatV1.02B3,2013-11-07 20:43:00,
2013-11-07 11:48:00,34.7,21.9,29.80,WNW,300,0.0,0.0,59,0.00,,,0.00,114,WeatherCatV1.02B3,2013-11-07 20:48:00,
2013-11-07 11:53:00,34.8,21.1,29.80,WNW,300,0.0,0.0,57,0.00,,,0.00,109,WeatherCatV1.02B3,2013-11-07 20:53:00,
2013-11-07 11:58:00,34.9,21.2,29.80,WNW,300,0.0,0.0,57,0.00,,,0.00,104,WeatherCatV1.02B3,2013-11-07 20:58:00,
2013-11-07 12:03:00,34.9,20.8,29.80,WNW,300,0.0,0.0,56,0.00,,,0.00,97,WeatherCatV1.02B3,2013-11-07 21:03:00,
2013-11-07 12:08:00,35.0,21.3,29.80,WNW,300,0.0,0.0,57,0.00,,,0.00,98,WeatherCatV1.02B3,2013-11-07 21:08:00,
2013-11-07 12:13:00,35.0,21.3,29.80,WNW,300,0.0,0.0,57,0.00,,,0.00,100,WeatherCatV1.02B3,2013-11-07 21:13:00,
2013-11-07 12:18:00,35.0,21.7,29.80,WNW,300,0.0,0.0,58,0.00,,,0.00,104,WeatherCatV1.02B3,2013-11-07 21:18:00,
2013-11-07 12:23:00,35.1,22.2,29.80,WNW,300,0.0,0.0,59,0.00,,,0.00,100,WeatherCatV1.02B3,2013-11-07 21:23:00,
2013-11-07 12:28:00,35.2,21.9,29.80,WNW,300,0.0,0.0,58,0.00,,,0.00,137,WeatherCatV1.02B3,2013-11-07 21:28:00,
2013-11-07 12:33:00,35.4,20.9,29.80,WNW,300,0.0,0.0,55,0.00,,,0.00,95,WeatherCatV1.02B3,2013-11-07 21:33:00,
2013-11-07 12:38:00,35.5,21.0,29.80,WNW,300,0.0,0.0,55,0.00,,,0.00,81,WeatherCatV1.02B3,2013-11-07 21:38:00,
2013-11-07 12:43:00,35.6,21.5,29.80,WNW,300,0.0,0.0,56,0.00,,,0.00,79,WeatherCatV1.02B3,2013-11-07 21:43:00,
2013-11-07 12:48:00,35.7,20.7,29.79,WNW,300,0.0,0.0,54,0.00,,,0.00,86,WeatherCatV1.02B3,2013-11-07 21:48:00,
2013-11-07 12:53:00,35.8,20.8,29.79,WNW,300,0.0,0.0,54,0.00,,,0.00,107,WeatherCatV1.02B3,2013-11-07 21:53:00,
2013-11-07 12:58:00,36.0,21.0,29.79,WNW,300,0.0,0.0,54,0.00,,,0.00,174,WeatherCatV1.02B3,2013-11-07 21:58:00,
2013-11-07 13:03:00,36.3,20.8,29.79,WNW,300,0.0,0.0,53,0.00,,,0.00,107,WeatherCatV1.02B3,2013-11-07 22:03:00,
2013-11-07 13:08:00,36.5,20.6,29.79,WNW,300,0.0,0.0,52,0.00,,,0.00,105,WeatherCatV1.02B3,2013-11-07 22:08:00,
2013-11-07 13:13:00,36.7,21.2,29.79,WNW,300,0.0,0.0,53,0.00,,,0.00,118,WeatherCatV1.02B3,2013-11-07 22:13:00,
2013-11-07 13:18:00,36.7,21.6,29.79,WNW,300,0.0,0.0,54,0.00,,,0.00,114,WeatherCatV1.02B3,2013-11-07 22:18:00,
2013-11-07 13:23:00,36.5,21.9,29.79,WNW,300,0.0,0.0,55,0.00,,,0.00,132,WeatherCatV1.02B3,2013-11-07 22:23:00,
2013-11-07 13:28:00,36.4,21.8,29.79,WNW,300,0.0,0.0,55,0.00,,,0.00,100,WeatherCatV1.02B3,2013-11-07 22:28:00,
2013-11-07 13:33:00,36.3,22.5,29.79,WNW,298,0.0,0.0,57,0.00,,,0.00,95,WeatherCatV1.02B3,2013-11-07 22:33:00,
2013-11-07 13:38:00,36.1,22.4,29.79,WNW,300,0.0,0.0,57,0.00,,,0.00,93,WeatherCatV1.02B3,2013-11-07 22:38:00,
2013-11-07 13:43:00,36.0,21.4,29.79,WNW,300,0.0,0.0,55,0.00,,,0.00,98,WeatherCatV1.02B3,2013-11-07 22:43:00,
2013-11-07 13:48:00,36.1,21.9,29.79,WNW,300,0.0,0.0,56,0.00,,,0.00,100,WeatherCatV1.02B3,2013-11-07 22:48:00,
2013-11-07 13:53:00,36.2,22.0,29.79,WNW,300,0.0,0.0,56,0.00,,,0.00,109,WeatherCatV1.02B3,2013-11-07 22:53:00,
2013-11-07 13:58:00,36.3,22.5,29.79,WNW,300,0.0,0.0,57,0.00,,,0.00,109,WeatherCatV1.02B3,2013-11-07 22:58:00,
2013-11-07 14:03:00,36.4,21.8,29.79,WNW,300,0.0,0.0,55,0.00,,,0.00,123,WeatherCatV1.02B3,2013-11-07 23:03:00,
2013-11-07 14:08:00,36.5,22.3,29.79,WNW,300,0.0,0.0,56,0.00,,,0.00,114,WeatherCatV1.02B3,2013-11-07 23:08:00,
2013-11-07 14:13:00,36.8,22.6,29.79,WNW,300,0.0,0.0,56,0.00,,,0.00,95,WeatherCatV1.02B3,2013-11-07 23:13:00,
2013-11-07 14:18:00,37.0,22.4,29.79,WNW,300,0.0,0.0,55,0.00,,,0.00,79,WeatherCatV1.02B3,2013-11-07 23:18:00,
2013-11-07 14:23:00,37.0,22.4,29.79,WNW,300,0.0,1.0,55,0.00,,,0.00,69,WeatherCatV1.02B3,2013-11-07 23:23:00,
2013-11-07 14:28:00,36.8,23.0,29.78,WNW,300,0.0,0.0,57,0.00,,,0.00,67,WeatherCatV1.02B3,2013-11-07 23:28:00,
2013-11-07 14:33:00,36.4,23.1,29.78,WNW,300,0.0,0.0,58,0.00,,,0.00,65,WeatherCatV1.02B3,2013-11-07 23:33:00,
2013-11-07 14:38:00,36.1,22.8,29.78,WNW,300,1.0,1.0,58,0.00,,,0.00,67,WeatherCatV1.02B3,2013-11-07 23:38:00,
2013-11-07 14:43:00,35.6,22.7,29.78,WNW,300,0.0,0.0,59,0.00,,,0.00,67,WeatherCatV1.02B3,2013-11-07 23:43:00,
2013-11-07 14:48:00,35.4,22.9,29.79,WNW,300,0.0,0.0,60,0.00,,,0.00,63,WeatherCatV1.02B3,2013-11-07 23:48:00,
2013-11-07 14:53:00,35.2,22.3,29.79,WNW,300,0.0,0.0,59,0.00,,,0.00,63,WeatherCatV1.02B3,2013-11-07 23:53:00,
2013-11-07 14:58:00,35.1,22.2,29.78,WNW,300,0.0,0.0,59,0.00,,,0.00,58,WeatherCatV1.02B3,2013-11-07 23:58:00,
2013-11-07 15:03:00,35.0,21.7,29.78,WNW,300,0.0,1.0,58,0.00,,,0.00,54,WeatherCatV1.02B3,2013-11-08 00:03:00,
2013-11-07 15:08:00,34.9,21.6,29.78,WNW,300,0.0,0.0,58,0.00,,,0.00,51,WeatherCatV1.02B3,2013-11-08 00:08:00,
2013-11-07 15:13:00,34.9,21.6,29.78,WNW,300,0.0,0.0,58,0.00,,,0.00,49,WeatherCatV1.02B3,2013-11-08 00:13:00,
2013-11-07 15:18:00,34.8,22.7,29.79,WNW,300,0.0,0.0,61,0.00,,,0.00,44,WeatherCatV1.02B3,2013-11-08 00:18:00,
2013-11-07 15:23:00,34.6,21.8,29.78,WNW,300,0.0,0.0,59,0.00,,,0.00,39,WeatherCatV1.02B3,2013-11-08 00:23:00,
2013-11-07 15:28:00,34.5,21.3,29.78,WNW,300,0.0,1.0,58,0.00,,,0.00,35,WeatherCatV1.02B3,2013-11-08 00:28:00,
2013-11-07 15:33:00,34.3,21.1,29.78,WNW,300,0.0,0.0,58,0.00,,,0.00,35,WeatherCatV1.02B3,2013-11-08 00:33:00,
2013-11-07 15:38:00,34.3,22.3,29.79,WNW,300,0.0,0.0,61,0.00,,,0.00,35,WeatherCatV1.02B3,2013-11-08 00:38:00,
2013-11-07 15:43:00,33.8,21.8,29.78,WNW,300,0.0,0.0,61,0.00,,,0.00,35,WeatherCatV1.02B3,2013-11-08 00:43:00,
2013-11-07 15:48:00,33.5,21.9,29.78,WNW,300,0.0,0.0,62,0.00,,,0.00,33,WeatherCatV1.02B3,2013-11-08 00:48:00,
2013-11-07 15:53:00,33.4,21.4,29.78,WNW,300,0.0,0.0,61,0.00,,,0.00,30,WeatherCatV1.02B3,2013-11-08 00:53:00,
2013-11-07 15:58:00,33.4,21.8,29.78,WNW,300,0.0,0.0,62,0.00,,,0.00,23,WeatherCatV1.02B3,2013-11-08 00:58:00,
2013-11-07 16:03:00,33.3,22.1,29.78,WNW,300,0.0,0.0,63,0.00,,,0.00,18,WeatherCatV1.02B3,2013-11-08 01:03:00,
2013-11-07 16:08:00,33.2,21.6,29.78,WNW,300,0.0,0.0,62,0.00,,,0.00,14,WeatherCatV1.02B3,2013-11-08 01:08:00,
2013-11-07 16:13:00,33.1,21.9,29.78,WNW,300,0.0,0.0,63,0.00,,,0.00,11,WeatherCatV1.02B3,2013-11-08 01:13:00,
2013-11-07 16:18:00,33.1,22.3,29.78,WNW,300,0.0,0.0,64,0.00,,,0.00,7,WeatherCatV1.02B3,2013-11-08 01:18:00,
2013-11-07 16:23:00,33.0,22.2,29.78,WNW,300,0.0,0.0,64,0.00,,,0.00,7,WeatherCatV1.02B3,2013-11-08 01:23:00,
2013-11-07 16:28:00,32.9,22.4,29.78,WNW,300,0.0,0.0,65,0.00,,,0.00,7,WeatherCatV1.02B3,2013-11-08 01:28:00,
2013-11-07 16:33:00,32.7,22.3,29.78,WNW,300,0.0,0.0,65,0.00,,,0.00,5,WeatherCatV1.02B3,2013-11-08 01:33:00,
2013-11-07 16:38:00,32.5,22.1,29.78,WNW,300,0.0,0.0,65,0.00,,,0.00,0,WeatherCatV1.02B3,2013-11-08 01:38:00,
2013-11-07 16:43:00,32.4,22.0,29.78,WNW,300,0.0,0.0,65,0.00,,,0.00,0,WeatherCatV1.02B3,2013-11-08 01:43:00,
2013-11-07 16:48:00,32.4,22.0,29.78,WNW,300,0.0,0.0,65,0.00,,,0.00,0,WeatherCatV1.02B3,2013-11-08 01:48:00,
2013-11-07 16:53:00,32.3,21.9,29.78,WNW,300,0.0,0.0,65,0.00,,,0.00,0,WeatherCatV1.02B3,2013-11-08 01:53:00,
2013-11-07 16:58:00,32.0,21.6,29.78,WNW,300,0.0,0.0,65,0.00,,,0.00,0,WeatherCatV1.02B3,2013-11-08 01:58:00,
2013-11-07 17:03:00,31.8,21.8,29.78,WNW,300,0.0,0.0,66,0.00,,,0.00,0,WeatherCatV1.02B3,2013-11-08 02:03:00,
2013-11-07 17:08:00,31.6,21.6,29.78,WNW,300,0.0,0.0,66,0.00,,,0.00,0,WeatherCatV1.02B3,2013-11-08 02:08:00,
2013-11-07 17:13:00,31.5,21.8,29.79,WNW,300,0.0,0.0,67,0.00,,,0.00,0,WeatherCatV1.02B3,2013-11-08 02:13:00,
2013-11-07 17:18:00,31.4,21.7,29.79,WNW,300,0.0,0.0,67,0.00,,,0.00,0,WeatherCatV1.02B3,2013-11-08 02:18:00,
2013-11-07 17:23:00,31.3,21.6,29.79,WNW,300,0.0,0.0,67,0.00,,,0.00,0,WeatherCatV1.02B3,2013-11-08 02:23:00,
2013-11-07 17:28:00,31.2,21.9,29.79,WNW,300,0.0,0.0,68,0.00,,,0.00,0,WeatherCatV1.02B3,2013-11-08 02:28:00,
2013-11-07 17:33:00,31.2,21.9,29.79,WNW,300,0.0,0.0,68,0.00,,,0.00,0,WeatherCatV1.02B3,2013-11-08 02:33:00,
2013-11-07 17:38:00,31.1,21.8,29.79,WNW,300,0.0,0.0,68,0.00,,,0.00,0,WeatherCatV1.02B3,2013-11-08 02:38:00,
2013-11-07 17:43:00,31.1,22.1,29.79,WNW,300,0.0,0.0,69,0.00,,,0.00,0,WeatherCatV1.02B3,2013-11-08 02:43:00,
2013-11-07 17:48:00,31.0,22.0,29.79,WNW,300,0.0,0.0,69,0.00,,,0.00,0,WeatherCatV1.02B3,2013-11-08 02:48:00,
2013-11-07 17:53:00,30.9,21.9,29.79,WNW,300,0.0,0.0,69,0.00,,,0.00,0,WeatherCatV1.02B3,2013-11-08 02:53:00,
2013-11-07 17:58:00,30.9,22.3,29.79,WNW,300,0.0,0.0,70,0.00,,,0.00,0,WeatherCatV1.02B3,2013-11-08 02:58:00,
2013-11-07 18:03:00,30.7,22.1,29.79,WNW,300,0.0,0.0,70,0.00,,,0.00,0,WeatherCatV1.02B3,2013-11-08 03:03:00,
2013-11-07 18:08:00,30.7,22.1,29.79,WNW,300,0.0,0.0,70,0.00,,,0.00,0,WeatherCatV1.02B3,2013-11-08 03:08:00,
2013-11-07 18:13:00,30.6,22.0,29.79,WNW,300,0.0,0.0,70,0.00,,,0.00,0,WeatherCatV1.02B3,2013-11-08 03:13:00,
2013-11-07 18:18:00,30.5,21.9,29.79,WNW,300,0.0,0.0,70,0.00,,,0.00,0,WeatherCatV1.02B3,2013-11-08 03:18:00,
2013-11-07 18:23:00,30.4,21.8,29.79,WNW,300,0.0,0.0,70,0.00,,,0.00,0,WeatherCatV1.02B3,2013-11-08 03:23:00,
2013-11-07 18:28:00,30.3,22.0,29.79,WNW,300,0.0,0.0,71,0.00,,,0.00,0,WeatherCatV1.02B3,2013-11-08 03:28:00,
2013-11-07 18:33:00,30.2,21.9,29.79,WNW,300,0.0,0.0,71,0.00,,,0.00,0,WeatherCatV1.02B3,2013-11-08 03:33:00,
2013-11-07 18:38:00,30.0,21.8,29.79,WNW,300,0.0,0.0,71,0.00,,,0.00,0,WeatherCatV1.02B3,2013-11-08 03:38:00,
2013-11-07 18:43:00,30.0,21.8,29.79,WNW,300,0.0,0.0,71,0.00,,,0.00,0,WeatherCatV1.02B3,2013-11-08 03:43:00,
2013-11-07 18:48:00,29.9,21.7,29.79,WNW,300,0.0,0.0,71,0.00,,,0.00,0,WeatherCatV1.02B3,2013-11-08 03:48:00,
2013-11-07 18:53:00,29.9,21.7,29.80,WNW,300,0.0,0.0,71,0.00,,,0.00,0,WeatherCatV1.02B3,2013-11-08 03:53:00,
2013-11-07 18:58:00,29.9,21.7,29.80,WNW,300,0.0,0.0,71,0.00,,,0.00,0,WeatherCatV1.02B3,2013-11-08 03:58:00,
2013-11-07 19:03:00,29.8,21.9,29.80,WNW,300,0.0,0.0,72,0.00,,,0.00,0,WeatherCatV1.02B3,2013-11-08 04:03:00,
2013-11-07 19:08:00,29.7,21.8,29.80,WNW,300,0.0,0.0,72,0.00,,,0.00,0,WeatherCatV1.02B3,2013-11-08 04:08:00,
2013-11-07 19:13:00,29.6,21.7,29.80,WNW,300,0.0,0.0,72,0.00,,,0.00,0,WeatherCatV1.02B3,2013-11-08 04:13:00,
2013-11-07 19:18:00,29.5,21.6,29.80,WNW,300,0.0,0.0,72,0.00,,,0.00,0,WeatherCatV1.02B3,2013-11-08 04:18:00,
2013-11-07 19:23:00,29.4,21.5,29.80,WNW,300,0.0,0.0,72,0.00,,,0.00,0,WeatherCatV1.02B3,2013-11-08 04:23:00,
2013-11-07 19:28:00,29.3,21.4,29.80,WNW,300,0.0,0.0,72,0.00,,,0.00,0,WeatherCatV1.02B3,2013-11-08 04:28:00,
2013-11-07 19:33:00,29.2,21.3,29.80,WNW,300,0.0,0.0,72,0.00,,,0.00,0,WeatherCatV1.02B3,2013-11-08 04:33:00,
2013-11-07 19:38:00,29.2,21.3,29.80,WNW,300,0.0,0.0,72,0.00,,,0.00,0,WeatherCatV1.02B3,2013-11-08 04:38:00,
2013-11-07 19:43:00,29.1,21.2,29.81,WNW,300,0.0,0.0,72,0.00,,,0.00,0,WeatherCatV1.02B3,2013-11-08 04:43:00,
2013-11-07 19:48:00,29.1,21.2,29.81,WNW,300,0.0,0.0,72,0.00,,,0.00,0,WeatherCatV1.02B3,2013-11-08 04:48:00,
2013-11-07 19:53:00,29.1,21.2,29.81,WNW,300,0.0,0.0,72,0.00,,,0.00,0,WeatherCatV1.02B3,2013-11-08 04:53:00,
2013-11-07 19:58:00,29.0,21.1,29.81,WNW,300,0.0,0.0,72,0.00,,,0.00,0,WeatherCatV1.02B3,2013-11-08 04:58:00,
2013-11-07 20:01:00,28.9,21.0,29.81,WNW,300,0.0,0.0,72,0.00,,,0.00,0,WeatherCatV1.02B3,2013-11-08 05:01:00,
2013-11-07 20:02:00,28.9,21.0,29.81,WNW,300,0.0,0.0,72,0.00,,,0.00,0,WeatherCatV1.02B3,2013-11-08 05:02:00,
2013-11-07 20:03:00,28.9,21.0,29.81,WNW,300,0.0,0.0,72,0.00,,,0.00,0,WeatherCatV1.02B3,2013-11-08 05:03:00,
2013-11-07 20:08:00,28.7,20.8,29.81,WNW,300,0.0,0.0,72,0.00,,,0.00,0,WeatherCatV1.02B3,2013-11-08 05:08:00,
2013-11-07 20:13:00,28.5,20.6,29.81,WNW,300,0.0,0.0,72,0.00,,,0.00,0,WeatherCatV1.02B3,2013-11-08 05:13:00,
2013-11-07 20:18:00,28.3,20.5,29.81,WNW,300,0.0,0.0,72,0.00,,,0.00,0,WeatherCatV1.02B3,2013-11-08 05:18:00,
2013-11-07 20:23:00,28.0,20.2,29.81,WNW,300,0.0,0.0,72,0.00,,,0.00,0,WeatherCatV1.02B3,2013-11-08 05:23:00,
2013-11-07 20:28:00,27.7,20.2,29.82,WNW,300,0.0,0.0,73,0.00,,,0.00,0,WeatherCatV1.02B3,2013-11-08 05:28:00,
2013-11-07 20:33:00,27.4,19.9,29.82,WNW,300,0.0,0.0,73,0.00,,,0.00,0,WeatherCatV1.02B3,2013-11-08 05:33:00,
2013-11-07 20:38:00,27.2,19.7,29.82,WNW,300,0.0,0.0,73,0.00,,,0.00,0,WeatherCatV1.02B3,2013-11-08 05:38:00,
2013-11-07 20:43:00,27.1,19.6,29.82,WNW,300,0.0,0.0,73,0.00,,,0.00,0,WeatherCatV1.02B3,2013-11-08 05:43:00,
2013-11-07 20:48:00,26.9,19.4,29.82,WNW,300,0.0,0.0,73,0.00,,,0.00,0,WeatherCatV1.02B3,2013-11-08 05:48:00,
2013-11-07 20:53:00,26.8,19.3,29.82,WNW,300,0.0,0.0,73,0.00,,,0.00,0,WeatherCatV1.02B3,2013-11-08 05:53:00,
2013-11-07 20:58:00,26.5,19.4,29.82,WNW,300,0.0,0.0,74,0.00,,,0.00,0,WeatherCatV1.02B3,2013-11-08 05:58:00,
2013-11-07 21:03:00,26.3,19.2,29.82,WNW,300,0.0,0.0,74,0.00,,,0.00,0,WeatherCatV1.02B3,2013-11-08 06:03:00,
2013-11-07 21:08:00,26.1,19.0,29.82,WNW,300,0.0,0.0,74,0.00,,,0.00,0,WeatherCatV1.02B3,2013-11-08 06:08:00,
2013-11-07 21:13:00,25.7,18.3,29.82,WNW,300,0.0,0.0,73,0.00,,,0.00,0,WeatherCatV1.02B3,2013-11-08 06:13:00,
2013-11-07 21:18:00,25.4,18.0,29.83,WNW,300,0.0,0.0,73,0.00,,,0.00,0,WeatherCatV1.02B3,2013-11-08 06:18:00,
2013-11-07 21:23:00,25.3,17.9,29.82,WNW,300,0.0,0.0,73,0.00,,,0.00,0,WeatherCatV1.02B3,2013-11-08 06:23:00,
2013-11-07 21:28:00,25.2,18.1,29.82,WNW,300,0.0,1.0,74,0.00,,,0.00,0,WeatherCatV1.02B3,2013-11-08 06:28:00,
2013-11-07 21:33:00,25.3,18.5,29.82,WNW,300,0.0,0.0,75,0.00,,,0.00,0,WeatherCatV1.02B3,2013-11-08 06:33:00,
2013-11-07 21:38:00,25.6,18.8,29.83,WNW,300,0.0,0.0,75,0.00,,,0.00,0,WeatherCatV1.02B3,2013-11-08 06:38:00,
2013-11-07 21:43:00,25.8,18.7,29.83,WNW,300,0.0,0.0,74,0.00,,,0.00,0,WeatherCatV1.02B3,2013-11-08 06:43:00,
2013-11-07 21:48:00,26.0,18.6,29.83,WNW,300,0.0,0.0,73,0.00,,,0.00,0,WeatherCatV1.02B3,2013-11-08 06:48:00,
2013-11-07 21:53:00,26.0,18.6,29.83,WNW,300,0.0,0.0,73,0.00,,,0.00,0,WeatherCatV1.02B3,2013-11-08 06:53:00,
2013-11-07 21:58:00,26.0,18.6,29.83,WNW,300,0.0,0.0,73,0.00,,,0.00,0,WeatherCatV1.02B3,2013-11-08 06:58:00,
2013-11-07 22:03:00,26.0,18.6,29.83,WNW,300,0.0,0.0,73,0.00,,,0.00,0,WeatherCatV1.02B3,2013-11-08 07:03:00,
2013-11-07 22:08:00,25.7,18.3,29.83,WNW,300,0.0,0.0,73,0.00,,,0.00,0,WeatherCatV1.02B3,2013-11-08 07:08:00,
2013-11-07 22:13:00,25.5,18.1,29.84,WNW,300,0.0,0.0,73,0.00,,,0.00,0,WeatherCatV1.02B3,2013-11-08 07:13:00,
2013-11-07 22:18:00,25.2,18.1,29.84,WNW,300,0.0,0.0,74,0.00,,,0.00,0,WeatherCatV1.02B3,2013-11-08 07:18:00,
2013-11-07 22:23:00,25.1,18.0,29.84,WNW,300,0.0,0.0,74,0.00,,,0.00,0,WeatherCatV1.02B3,2013-11-08 07:23:00,
2013-11-07 22:28:00,25.0,17.9,29.84,WNW,300,0.0,0.0,74,0.00,,,0.00,0,WeatherCatV1.02B3,2013-11-08 07:28:00,
2013-11-07 22:33:00,25.0,17.9,29.84,WNW,300,0.0,0.0,74,0.00,,,0.00,0,WeatherCatV1.02B3,2013-11-08 07:33:00,
2013-11-07 22:38:00,25.1,18.0,29.84,WNW,300,0.0,0.0,74,0.00,,,0.00,0,WeatherCatV1.02B3,2013-11-08 07:38:00,
2013-11-07 22:43:00,25.1,18.0,29.85,WNW,300,0.0,0.0,74,0.00,,,0.00,0,WeatherCatV1.02B3,2013-11-08 07:43:00,
2013-11-07 22:48:00,24.9,17.8,29.84,WNW,300,0.0,0.0,74,0.00,,,0.00,0,WeatherCatV1.02B3,2013-11-08 07:48:00,
2013-11-07 22:53:00,24.6,17.5,29.85,WNW,300,0.0,0.0,74,0.00,,,0.00,0,WeatherCatV1.02B3,2013-11-08 07:53:00,
2013-11-07 22:58:00,24.6,17.5,29.85,WNW,300,0.0,0.0,74,0.00,,,0.00,0,WeatherCatV1.02B3,2013-11-08 07:58:00,
2013-11-07 23:03:00,24.5,17.4,29.85,WNW,300,0.0,0.0,74,0.00,,,0.00,0,WeatherCatV1.02B3,2013-11-08 08:03:00,
2013-11-07 23:08:00,24.3,17.2,29.85,WNW,300,0.0,0.0,74,0.00,,,0.00,0,WeatherCatV1.02B3,2013-11-08 08:08:00,
2013-11-07 23:13:00,24.2,17.1,29.86,WNW,300,0.0,0.0,74,0.00,,,0.00,0,WeatherCatV1.02B3,2013-11-08 08:13:00,
2013-11-07 23:18:00,24.2,17.1,29.86,WNW,300,0.0,0.0,74,0.00,,,0.00,0,WeatherCatV1.02B3,2013-11-08 08:18:00,
2013-11-07 23:23:00,24.1,17.0,29.86,WNW,300,0.0,0.0,74,0.00,,,0.00,0,WeatherCatV1.02B3,2013-11-08 08:23:00,
2013-11-07 23:28:00,24.0,16.9,29.87,WNW,300,0.0,0.0,74,0.00,,,0.00,0,WeatherCatV1.02B3,2013-11-08 08:28:00,
2013-11-07 23:33:00,23.7,16.6,29.87,WNW,300,0.0,0.0,74,0.00,,,0.00,0,WeatherCatV1.02B3,2013-11-08 08:33:00,
2013-11-07 23:38:00,23.3,16.3,29.87,WNW,300,0.0,0.0,74,0.00,,,0.00,0,WeatherCatV1.02B3,2013-11-08 08:38:00,
2013-11-07 23:43:00,23.0,16.3,29.87,WNW,300,0.0,0.0,75,0.00,,,0.00,0,WeatherCatV1.02B3,2013-11-08 08:43:00,
2013-11-07 23:48:00,22.8,16.1,29.87,WNW,300,0.0,0.0,75,0.00,,,0.00,0,WeatherCatV1.02B3,2013-11-08 08:48:00,
2013-11-07 23:53:00,22.7,16.3,29.87,WNW,300,0.0,0.0,76,0.00,,,0.00,0,WeatherCatV1.02B3,2013-11-08 08:53:00,
2013-11-07 23:58:00,22.7,16.3,29.87,WNW,300,0.0,0.0,76,0.00,,,0.00,0,WeatherCatV1.02B3,2013-11-08 08:58:00,